Weather History for Sevilla, Spain

Change the Weather History Date:

Tuesday, May 14, 2013

  Actual Average Record
Temperature  
Mean Temperature 71 °F -  
Max Temperature 80 °F 84 °F 98 °F (2003)
Min Temperature 62 °F 59 °F 51 °F (2004)
Cooling Degree Days 6    
Growing Degree Days 21 (Base 50)    
Moisture  
Dew Point 56 °F    
Average Humidity 59    
Maximum Humidity 83    
Minimum Humidity 37    
Precipitation  
Precipitation 0.00 in - - ()
Sea Level Pressure  
Sea Level Pressure 29.84 in    
Wind  
Wind Speed 6 mph ()    
Max Wind Speed 18 mph    
Max Gust Speed -    
Visibility 6.2 miles    
Events Thunderstorm    
Averages and records for this station are not official NWS values.
T = Trace of Precipitation, MM = Missing Value Source: Averaged Metar Reports

Daily Weather History Graph

Daily Weather History Graph

Search for Another Location

Airport:

Trip Planner

Search our weather history database for the weather conditions in past years. The results will help you decide how hot, cold, wet, or windy it might be!

Date:

Astronomy

May. 14, 2013 Rise Set
Actual Time 7:15 AM CEST 9:24 PM CEST
Civil Twilight 6:46 AM CEST 9:54 PM CEST
Nautical Twilight 6:10 AM CEST 10:29 PM CEST
Astronomical Twilight 5:32 AM CEST 11:08 PM CEST
Moon 10:42 AM CEST (5/14) 12:23 AM CEST (5/14)
Length of Visible Light 15h 07m
Length of Day
14h 09m
Waxing Crescent, 17% of the Moon is Illuminated
May 14
Waxing Crescent
May 18
First Quarter
May 25
Full
May 31
Last Quarter
Jun 8
New

Hourly Weather History & Observations

Time (CEST) Temp. Heat Index Dew Point Humidity Pressure Visibility Wind Dir Wind Speed Gust Speed Precip Events Conditions
12:00 AM 71.6 °F - 53.6 °F 53% 29.95 in - West 8.1 mph - N/A   Clear
12:30 AM 69.8 °F - 55.4 °F 60% 29.95 in - West 6.9 mph - N/A   Clear
1:00 AM 69.8 °F - 55.4 °F 60% 29.95 in - West 3.5 mph - N/A   Clear
4:30 AM 64.4 °F - 59.0 °F 83% 29.86 in - Variable 1.2 mph - N/A   Clear
5:00 AM 64.4 °F - 57.2 °F 77% 29.86 in - ESE 2.3 mph - N/A   Clear
5:30 AM 64.4 °F - 59.0 °F 83% 29.86 in - Calm Calm - N/A   Clear
6:00 AM 66.2 °F - 57.2 °F 73% 29.86 in - Calm Calm - N/A   Clear
6:30 AM 64.4 °F - 57.2 °F 77% 29.86 in - Variable 2.3 mph - N/A   Clear
7:00 AM 62.6 °F - 57.2 °F 82% 29.86 in - NW 3.5 mph - N/A   Clear
7:30 AM 62.6 °F - 57.2 °F 82% 29.89 in - Variable 1.2 mph - N/A   Clear
8:00 AM 62.6 °F - 57.2 °F 82% 29.89 in - Calm Calm - N/A   Clear
8:30 AM 64.4 °F - 57.2 °F 77% 29.89 in - Variable 2.3 mph - N/A   Clear
9:00 AM 66.2 °F - 57.2 °F 73% 29.89 in - West 1.2 mph - N/A   Clear
9:30 AM 69.8 °F - 57.2 °F 64% 29.92 in - Variable 2.3 mph - N/A   Clear
10:00 AM 69.8 °F - 57.2 °F 64% 29.92 in - Variable 2.3 mph - N/A   Clear
10:30 AM 71.6 °F - 55.4 °F 57% 29.92 in - West 8.1 mph - N/A   Clear
11:00 AM 73.4 °F - 55.4 °F 53% 29.89 in - WNW 6.9 mph - N/A   Clear
12:00 PM 75.2 °F - 55.4 °F 50% 29.89 in - SW 6.9 mph - N/A   Clear
12:30 PM 77.0 °F - 55.4 °F 47% 29.89 in 6.2 mi SW 8.1 mph - N/A   Partly Cloudy
1:00 PM 77.0 °F - 55.4 °F 47% 29.89 in 6.2 mi SW 10.4 mph - N/A   Partly Cloudy
1:30 PM 77.0 °F - 57.2 °F 50% 29.86 in 6.2 mi SW 8.1 mph - N/A   Partly Cloudy
2:00 PM 78.8 °F - 55.4 °F 44% 29.86 in 6.2 mi WSW 9.2 mph - N/A   Partly Cloudy
2:30 PM 78.8 °F - 55.4 °F 44% 29.83 in 6.2 mi SW 10.4 mph - N/A   Partly Cloudy
3:00 PM 78.8 °F - 53.6 °F 42% 29.83 in - SW 11.5 mph - N/A   Clear
3:30 PM 78.8 °F - 51.8 °F 39% 29.80 in - SW 13.8 mph - N/A   Clear
4:00 PM 80.6 °F 80.3 °F 53.6 °F 39% 29.80 in - SW 15.0 mph - N/A   Clear
4:30 PM 80.6 °F 80.3 °F 53.6 °F 39% 29.77 in - SSW 15.0 mph - N/A   Clear
5:00 PM 80.6 °F 80.3 °F 53.6 °F 39% 29.77 in - SW 15.0 mph - N/A   Clear
5:30 PM 80.6 °F - 51.8 °F 37% 29.77 in - SW 13.8 mph - N/A   Clear
6:00 PM 80.6 °F - 51.8 °F 37% 29.77 in - SW 16.1 mph - N/A   Clear
6:30 PM 80.6 °F - 51.8 °F 37% 29.77 in 6.2 mi SW 18.4 mph - N/A   Partly Cloudy
7:00 PM 78.8 °F - 51.8 °F 39% 29.74 in 6.2 mi SW 16.1 mph - N/A   Partly Cloudy
7:30 PM 77.0 °F - 53.6 °F 44% 29.74 in 6.2 mi SW 13.8 mph - N/A   Partly Cloudy
8:00 PM 75.2 °F - 57.2 °F 53% 29.74 in 6.2 mi SW 12.7 mph - N/A   Partly Cloudy
9:00 PM 73.4 °F - 59.0 °F 61% 29.74 in 6.2 mi SSW 11.5 mph - N/A   Partly Cloudy
9:30 PM 71.6 °F - 59.0 °F 64% 29.77 in 6.2 mi SSW 6.9 mph - N/A   Partly Cloudy
10:00 PM 69.8 °F - 59.0 °F 68% 29.77 in 6.2 mi South 6.9 mph - N/A   Partly Cloudy
10:30 PM 68.0 °F - 60.8 °F 78% 29.77 in 6.2 mi SW 11.5 mph - N/A Thunderstorm Partly Cloudy
11:00 PM 68.0 °F - 60.8 °F 78% 29.77 in 6.2 mi South 5.8 mph - N/A Thunderstorm Partly Cloudy
11:30 PM 68.0 °F - 59.0 °F 73% 29.77 in 6.2 mi South 6.9 mph - N/A   Partly Cloudy